• MPC Preparation (Info)

  • MPEC 2012-V38 : 2012 VS6

    The following Minor Planet Electronic Circular may be linked-to from your own Web pages, but must not otherwise be redistributed electronically.

    A form allowing access to any MPEC is at the bottom of this page.


    Read MPEC 2012-V37 Read MPEC 2012-V39


    M.P.E.C. 2012-V38                                Issued 2012 Nov. 6, 18:42 UT
    
         The Minor Planet Electronic Circulars contain information on unusual
             minor planets and routine data on comets.  They are published
       on behalf of Commission 20 of the International Astronomical Union by the
              Minor Planet Center, Smithsonian Astrophysical Observatory,
                              Cambridge, MA 02138, U.S.A.
    
                 Prepared using the Tamkin Foundation Computer Network
    
                                  MPC@CFA.HARVARD.EDU
                URL https://www.minorplanetcenter.net/    ISSN 1523-6714
    
                                       2012 VS6
    
    Observations:
         K12V06S* C2012 11 04.35711 02 34 45.30 +17 39 43.4          19.5 VrEV038G96
         K12V06S  C2012 11 04.36409 02 34 44.83 +17 37 39.2          19.5 VrEV038G96
         K12V06S  C2012 11 04.37113 02 34 44.32 +17 35 34.7          19.6 VrEV038G96
         K12V06S  C2012 11 04.37819 02 34 43.89 +17 33 29.6          19.4 VrEV038G96
         K12V06S  C2012 11 04.46574 02 34 38.78 +17 07 45.2          19.4 VrEV038G96
         K12V06S  C2012 11 04.46612 02 34 38.78 +17 07 38.7          19.3 VrEV038G96
         K12V06S  C2012 11 04.46653 02 34 38.74 +17 07 30.8          19.5 VrEV038G96
         K12V06S  C2012 11 04.46695 02 34 38.71 +17 07 23.8          19.5 VrEV038G96
         K12V06S KC2012 11 05.24647902 34 14.73 +13 29 52.2          19.5 VrEV038H21
         K12V06S KC2012 11 05.25054702 34 14.48 +13 28 46.6          19.5 VrEV038H21
         K12V06S KC2012 11 05.25458302 34 14.24 +13 27 41.8          19.5 VrEV038H21
         K12V06S KC2012 11 05.94720 02 33 53.23 +10 30 00.1          19.3 RuEV038203
         K12V06S KC2012 11 05.96205 02 33 52.44 +10 26 20.4                tEV038204
         K12V06S KC2012 11 05.97260 02 33 51.88 +10 23 44.7          19.5 RtEV038204
         K12V06S KC2012 11 05.98114 02 33 51.41 +10 21 39.4          19.0 RuEV038203
         K12V06S KC2012 11 05.98288 02 33 51.34 +10 21 13.1                tEV038204
    
    Observer details:
    203 GiaGa Observatory.  Observers S. Foglia, G. Galli.  Measurer G. Galli.
        0.28-m f/6.8 Schmidt-Cassegrain + CCD.
    204 Schiaparelli Observatory.  Observer L. Buzzi.  0.38-m f/6.8 reflector
        + CCD.
    G96 Mt. Lemmon Survey.  Observer A. R. Gibbs.  Measurers A. Boattini,
        E. J. Christensen, A. R. Gibbs, A. D. Grauer, R. E. Hill, J. A. Johnson,
        R. A. Kowalski, S. M. Larson, R. H. McNaught.  1.5-m reflector + CCD.
    H21 Astronomical Research Observatory, Westfield.  Observer R. Holmes.
        Measurers L. Buzzi, H. Devore, S. Foglia, T. Vorobjov.  0.61-m f/4.0
        astrograph + CCD.
    
    Orbital elements:
    2012 VS6                                                 Earth MOID = 0.0896 AU
    Epoch 2012 Sept. 30.0 TT = JDT 2456200.5                MPC
    M  24.23094              (2000.0)            P               Q
    n   0.68467834     Peri.   91.63659     +0.60090862     +0.72017783
    a   1.2749065      Node   222.51961     -0.76649483     +0.64222651
    e   0.3556243      Incl.   30.87053     +0.22670356     +0.26246715
    P   1.44           H   23.8           G   0.15           U   8
    Residuals in seconds of arc
    121104 G96  0.3+  0.1+    121104 G96  0.0   0.2-    121105 204  0.1+  0.1+
    121104 G96  0.2+  0.4-    121104 G96  0.1-  0.2+    121105 204  0.1-  0.1-
    121104 G96  0.5-  0.1-    121105 H21  0.1+  0.2+    121105 203  0.2-  0.0
    121104 G96  0.1-  0.2-    121105 H21  0.0   0.2-    121105 204  0.2-  0.3-
    121104 G96  0.0   0.3+    121105 H21  0.1-  0.3-
    121104 G96  0.3+  0.5+    121105 203  0.5+  0.4+
    
    Ephemeris:
    2012 VS6                 a,e,i = 1.27, 0.36, 31                  q = 0.8215
    Date    TT    R. A. (2000) Decl.     Delta      r     Elong.  Phase     V
    2012 10 07    14 21 09.5 +62 15 04   0.2554  0.9427    69.9    95.4    24.1
    ...
    2012 10 22    11 43 11.3 +87 39 28   0.1272  1.0229    99.0    73.9    22.0
    ...
    2012 10 30    02 40 39.0 +50 03 39   0.09222 1.0684   143.4    33.6    20.2
    ...
    2012 11 05    02 34 23.6 +14 37 23   0.1117  1.1031   178.0     1.8    19.5
    2012 11 06    02 33 51.4 +10 17 56   0.1183  1.1089   173.7     5.7    19.8
    2012 11 07    02 33 23.9 +06 27 28   0.1256  1.1147   169.4     9.4    20.2
    ...
    2012 11 13    02 31 47.4 -08 50 57   0.1786  1.1494   151.3    24.4    21.5
    ...
    2012 11 21    02 31 47.6 -17 55 42   0.2620  1.1953   137.9    33.6    22.7
    ...
    2012 12 06    02 36 31.9 -23 01 47   0.4330  1.2787   124.0    39.7    24.1
    
    A. U. Tomatic                (C) Copyright 2012 MPC           M.P.E.C. 2012-V38
    

    Read MPEC 2012-V37 Read MPEC 2012-V39


    MPEC number:

    Enter an MPEC number in one of the following forms:

    • 1997-B01 (the full form)
    • J97B01 (the packed version of the full form)
    • B01 (the abbreviated form)